Flag for U.S.A. Weather past 2 weeks in Lawrence, Kansas, U.S.A.

Now
71 °F

Light rain. Fog.


Feels Like: 67 °F
Forecast: 67 / 81 °F
Wind: 5 mph from Northeast

Location: Lawrence Municipal Airport

Current Time: Aug 4, 2015 at 8:02:06 PM

Latest Report: Aug 4, 2015 at 6:52 PM


Visibility: 4 mi

Pressure: 29.99 "Hg

Humidity: 93%

Dew point: 69 °F

Location of LawrenceLocation

Historic Weather in Lawrence — Graph

°F

Lawrence temperature yesterday

Maximum temperature yesterday: 93 °F (at 4:52 PM)
Minimum temperature yesterday: 68 °F (at 6:52 AM)
Average temperature yesterday: 81 °F

Past Weeks' High & Low Weather Summary

 TemperatureHumidityPressure
High98 °F (Jul 24, 4:52 PM)96% (Jul 22, 6:52 AM)30.21 "Hg (Jul 22, 6:52 AM)
Low59 °F (Jul 31, 5:52 AM)39% (Jul 30, 3:52 PM)29.80 "Hg (Aug 2, 6:52 PM)
Average79 °F75%29.94 "Hg
* Reported Jul 20 6:52 PM — Aug 4 6:52 PM, Lawrence, Weather by CustomWeather, © 2015

Note: Actual official high and low records may vary slightly from our data, if they occured in-between our weather recording intervals... More about our weather records

Advertising

Lawrence weather history for previous 24 hours

 ConditionsComfort  
Time TempWeatherWind HumidityBarometerVisibility
6:52 PM
Tue, Aug 4
71 °FLight rain. Fog.5 mph93%29.99 "Hg4 mi
6:01 PM72 °FThundershowers. Fog.8 mph93%30.02 "Hg2 mi
4:59 PM72 °FStrong thunderstorms. Fog.8 mph93%29.97 "Hg1 mi
3:52 PM78 °FThunderstorms. Fog.7 mph90%29.90 "Hg6 mi
2:52 PM84 °FScattered clouds.9 mph70%29.91 "Hg10 mi
1:52 PM86 °FPartly sunny.8 mph67%29.92 "Hg10 mi
12:52 PM85 °FPassing clouds.7 mph63%29.94 "Hg10 mi
11:52 AM84 °FBroken clouds.6 mph67%29.96 "Hg10 mi
10:52 AM82 °FPartly sunny.No wind70%29.96 "Hg10 mi
9:52 AM80 °FSunny.3 mph74%29.95 "Hg10 mi
8:52 AM76 °FSunny.6 mph85%29.94 "Hg10 mi
7:52 AM74 °FSunny.3 mph88%29.93 "Hg9 mi
6:52 AM71 °FClear.6 mph90%29.94 "Hg10 mi
5:52 AM71 °FClear.3 mph93%29.92 "Hg8 mi
4:52 AM72 °FClear.5 mph91%29.90 "Hg10 mi
3:52 AM72 °FClear.No wind91%29.89 "Hg8 mi
2:52 AM72 °FClear.5 mph91%29.89 "Hg10 mi
1:52 AM73 °FClear.3 mph90%29.90 "Hg10 mi
12:52 AM74 °FClear.No wind88%29.91 "Hg10 mi
11:52 PM
Mon, Aug 3
76 °FClear.6 mph80%29.90 "Hg10 mi
10:52 PM77 °FClear.3 mph77%29.90 "Hg10 mi
9:52 PM78 °FClear.9 mph74%29.88 "Hg10 mi
8:52 PM80 °FSunny.8 mph74%29.87 "Hg10 mi
Weather by CustomWeather, © 2015

See weather overviewHow to use our weather pages